Probability
0 0 0 0 0 0 0 0 0 0 0 0 0 0 0 0 0 0 0 0 0 0 1 2 3 3 2 1 1 2 2 3 3 3 3 3 2 1 0 0 0 0 0 0 0 1 1 2 3
0 0 0 0 0 0 0 0 0 0 0 0 0 0 0 0 0 0 0 0 0 0 1 2 3 2 2 1 0 1 1 3 3 3 3 3 2 1 0 0 0 0 0 0 1 1 1 1 2
0 0 0 0 0 0 0 0 0 0 0 0 0 0 0 0 0 0 0 0 0 0 1 2 2 1 2 2 1 0 1 2 3 3 3 3 2 1 0 0 0 0 0 0 1 1 1 0 1
0 0 0 0 0 0 0 0 0 0 0 0 0 0 0 0 0 0 0 0 0 0 0 1 1 1 1 1 1 0 1 2 3 3 3 3 2 1 0 0 0 0 0 0 0 0 0 0 0
0 0 0 0 0 0 0 0 0 0 0 0 0 0 0 0 0 0 0 0 0 0 0 0 0 0 0 0 0 0 0 1 2 3 3 3 3 1 1 0 0 0 0 0 0 0 0 0 0
0 0 0 0 0 0 0 0 0 0 0 0 0 0 0 0 0 0 0 0 0 0 0 0 0 0 0 0 0 0 0 0 1 2 3 3 3 2 1 0 0 0 0 0 0 0 0 0 0
0 0 0 0 0 0 0 0 0 0 0 0 0 0 0 0 0 0 0 0 0 0 0 0 0 0 0 0 0 0 0 0 0 1 2 2 3 2 1 0 0 0 0 0 0 0 0 0 0
0 0 0 0 0 0 0 0 0 0 0 0 0 0 0 0 0 0 0 0 0 0 0 0 0 0 0 0 0 0 0 0 0 0 1 1 1 1 1 0 0 0 0 0 0 0 0 0 0
0 0 0 0 0 0 0 0 0 0 0 0 0 0 0 0 0 0 0 0 0 0 0 0 0 0 0 0 0 0 0 0 0 0 0 0 0 0 0 0 0 0 0 0 0 0 0 0 0
0 0 0 0 0 0 0 0 0 0 0 0 0 0 0 0 0 0 0 0 0 0 0 0 0 0 0 0 0 0 0 0 0 0 0 0 0 0 0 0 0 0 0 0 0 0 0 0 0
0 0 0 0 0 0 0 0 0 0 0 0 0 0 0 0 0 0 0 0 0 0 0 0 0 0 0 0 0 0 0 0 0 0 0 0 0 0 0 0 0 0 0 0 0 0 0 0 0
0 0 0 0 0 0 0 0 0 0 0 0 0 0 0 0 0 0 0 0 0 0 0 0 0 0 0 0 0 0 0 0 0 0 0 0 0 0 0 0 0 0 0 0 0 0 0 0 0
0 0 0 0 0 0 0 0 0 0 0 0 0 0 0 0 0 0 0 0 0 0 0 0 0 0 0 0 0 0 0 0 0 0 0 0 0 0 0 0 0 0 0 0 0 0 0 0 0
0 0 0 0 0 0 0 0 0 0 0 0 0 0 0 0 0 0 0 0 0 0 0 0 0 0 0 0 0 0 0 0 0 0 0 0 0 0 0 0 0 0 0 0 0 0 0 0 0
0 0 0 0 0 0 0 0 0 0 0 0 0 0 0 0 0 0 0 0 0 0 0 0 0 0 0 0 0 0 0 0 0 0 0 0 0 0 0 0 0 0 0 0 0 0 0 0 0
0 0 0 0 0 0 0 0 0 0 0 0 0 0 0 0 0 0 0 0 0 0 0 0 0 0 0 0 0 0 0 0 0 0 0 0 0 0 0 0 0 0 0 0 0 0 0 0 0
0 0 0 0 0 0 0 0 0 0 0 0 0 0 0 0 0 0 0 0 0 0 0 0 0 0 0 1 0 0 0 0 0 0 0 0 0 0 0 0 0 0 1 1 1 0 0 0 0
0 0 0 0 0 0 0 0 0 0 0 0 0 0 0 0 0 0 0 0 0 0 0 0 0 0 0 0 0 0 0 0 0 0 0 0 0 0 0 0 0 0 1 1 1 0 0 0 0
0 0 0 0 0 0 0 0 0 0 0 0 0 0 0 0 0 0 0 0 0 0 0 0 0 0 0 0 0 0 0 0 0 0 0 0 0 0 0 0 0 0 0 0 0 0 0 0 0
0 0 0 0 0 0 0 0 0 0 0 0 0 0 0 0 0 0 0 0 0 0 0 0 0 0 0 0 0 0 0 0 0 0 0 0 0 0 0 0 0 0 0 0 0 0 0 0 0
0 0 0 0 0 0 0 0 0 0 0 0 0 0 0 0 0 0 0 0 0 0 0 0 0 0 0 0 0 0 0 0 0 0 0 0 0 0 0 0 0 0 0 0 0 0 0 0 0
0 0 0 0 0 0 0 0 0 0 0 0 0 0 0 0 0 0 0 0 0 0 0 0 0 0 0 0 0 0 0 0 0 0 0 0 0 0 0 0 0 0 0 0 0 0 0 0 0
0 0 0 0 0 0 0 0 0 0 0 0 0 0 0 0 0 0 0 0 0 0 0 0 0 0 0 0 0 0 0 0 0 0 0 0 0 0 0 0 0 0 0 0 0 0 0 0 0
0 0 0 0 0 0 0 0 0 0 0 0 0 0 0 0 0 0 0 0 0 0 0 0 0 0 0 0 0 0 0 0 0 0 0 0 0 0 0 0 0 0 0 0 0 0 0 0 0
0 0 0 0 0 0 0 0 0 0 0 0 0 0 0 0 0 0 0 0 0 0 0 0 0 0 0 0 0 0 0 0 0 0 0 0 0 0 0 0 0 0 0 0 0 0 0 0 0
0 0 0 0 0 0 0 0 0 0 0 0 0 0 0 0 0 0 0 0 0 0 0 0 0 0 0 0 0 0 0 0 0 0 0 0 0 0 0 0 0 0 0 0 0 0 0 0 0
0 0 0 0 0 0 0 0 0 0 0 0 0 0 0 0 0 0 0 0 0 0 0 0 0 0 0 0 0 0 0 0 0 0 0 0 0 0 0 0 0 0 0 0 0 0 0 0 0
0 0 0 0 0 0 0 0 0 0 0 0 0 0 0 0 0 0 0 0 0 0 0 0 0 0 0 0 0 0 0 0 0 0 0 0 0 0 0 0 0 0 0 0 0 0 0 0 0
0 0 0 0 0 0 0 0 0 0 0 0 0 0 0 0 0 0 0 0 0 0 0 0 0 0 0 0 0 0 0 0 0 0 0 0 0 0 0 0 0 0 0 0 0 0 0 0 0
0 0 0 0 0 0 0 0 0 0 0 0 0 0 0 0 0 0 0 0 0 0 0 0 0 0 0 0 0 0 0 0 0 0 0 0 0 0 0 0 0 0 0 0 0 0 0 0 0
Wind_Speed
7 4 2 4 5 3 3 3 2 1 1 0 1 2 3 3 3 3 0 2 3 4 4 5 6 8 9 8 8 8 8 8 8 7 7 7 8 8 8 8 8 8 8 9 9 9 10 10 9
2 2 4 4 3 1 4 3 3 2 1 1 2 2 2 1 1 0 0 1 3 4 4 4 7 8 8 8 8 8 7 7 7 7 7 7 7 7 7 7 7 7 8 8 8 8 9 9 9
1 3 4 3 3 5 4 3 3 0 1 1 1 1 1 1 1 1 1 3 4 3 3 4 7 8 8 8 8 7 7 7 7 7 7 7 7 7 7 6 7 7 7 7 7 8 8 8 8
2 4 4 3 4 4 3 2 1 1 1 1 2 0 1 1 1 1 2 4 5 3 2 3 6 7 8 7 7 7 6 6 6 6 6 6 6 6 6 6 6 6 6 6 7 7 7 7 7
4 4 2 1 4 3 2 2 2 2 1 0 2 1 2 1 1 2 4 5 5 3 2 3 5 6 6 6 6 6 6 6 5 6 5 5 6 6 5 5 5 5 6 6 6 6 6 6 6
4 3 2 4 5 3 2 2 2 2 2 1 2 2 3 1 1 2 4 4 3 3 3 3 4 4 5 5 5 5 4 5 5 5 5 5 5 5 5 5 5 5 5 6 6 6 6 6 6
4 3 3 3 3 3 3 1 2 2 2 3 2 3 2 1 1 3 3 3 3 3 2 2 2 2 4 4 4 5 4 4 5 5 5 5 5 5 5 5 5 5 4 5 5 6 6 6 6
3 4 2 3 4 4 2 1 1 2 3 1 3 4 4 2 2 4 4 3 3 2 2 2 2 2 2 2 3 4 5 4 4 5 5 5 5 5 5 4 4 4 4 4 5 5 5 5 6
3 3 3 5 5 4 1 1 1 0 1 1 1 2 2 2 4 4 3 2 1 1 1 2 2 2 2 2 3 3 4 4 3 3 5 4 3 3 3 4 4 3 3 4 4 5 5 5 5
3 3 6 3 3 2 1 2 1 0 1 2 2 2 1 3 4 5 5 5 4 4 3 2 3 3 2 2 2 2 2 2 2 2 3 2 2 2 3 4 4 3 3 3 4 5 5 4 2
2 4 3 2 2 1 1 1 1 2 4 6 5 4 3 3 4 5 6 5 6 5 4 3 3 3 3 2 2 1 1 1 2 2 3 2 2 2 2 2 2 2 3 2 3 3 2 2 1
1 3 2 2 1 1 2 2 2 4 7 4 4 4 4 5 6 7 7 6 4 4 5 4 4 3 3 3 2 2 2 2 2 2 2 2 2 2 1 1 1 1 1 1 1 1 1 1 1
2 2 2 2 1 2 1 3 3 7 7 4 2 3 5 6 6 6 5 4 4 5 5 4 4 4 4 3 2 2 2 2 2 2 2 3 2 2 2 1 1 1 1 1 1 0 1 1 1
1 2 3 2 2 2 2 4 3 9 4 2 3 5 6 7 7 5 5 6 6 6 5 4 5 5 5 4 4 3 3 2 2 2 2 3 3 2 2 1 1 1 0 0 0 0 0 0 0
0 2 4 2 2 1 1 6 7 7 1 3 4 5 5 6 5 6 6 6 6 5 5 5 5 5 5 5 4 3 3 3 2 2 3 3 2 3 2 2 1 1 1 1 0 0 0 0 1
1 1 3 3 1 1 1 9 7 3 3 5 6 5 5 5 5 6 5 5 4 4 4 5 5 5 6 5 4 3 3 3 2 2 2 3 3 3 2 2 1 1 1 1 1 0 0 0 1
2 1 4 5 1 0 2 9 7 1 3 6 6 5 5 5 5 5 5 4 4 4 4 4 4 5 5 4 3 3 3 3 2 2 2 2 3 3 2 2 1 1 1 1 1 0 0 1 1
3 3 4 5 2 1 5 11 11 4 5 6 6 6 5 6 7 4 4 4 3 3 3 3 3 4 4 3 3 2 2 2 2 2 2 3 2 3 3 2 2 2 1 1 0 0 0 0 0
2 3 6 5 2 2 7 12 13 7 5 7 7 6 6 7 5 3 3 2 2 2 2 3 4 3 3 3 3 3 3 2 2 2 2 3 2 3 3 2 2 1 2 2 1 1 0 1 1
2 3 5 4 2 2 6 11 10 6 5 6 6 7 6 5 4 3 2 2 2 3 3 3 4 4 4 3 3 2 3 2 2 2 2 2 3 3 3 2 2 2 1 1 1 1 1 1 1
3 4 4 4 5 2 5 9 6 4 3 3 4 5 4 5 5 4 2 3 3 3 3 3 3 3 3 3 3 2 2 1 1 2 2 2 3 3 2 3 2 2 2 2 2 3 2 1 0
5 3 3 2 2 4 2 7 8 5 6 4 4 4 5 4 4 3 2 2 3 4 2 2 2 2 2 3 4 5 4 3 3 2 2 2 2 2 2 2 2 2 2 2 3 2 2 2 1
3 0 1 2 2 3 1 3 10 3 5 6 5 6 5 4 3 3 3 3 2 2 2 2 2 2 2 3 4 5 4 3 2 2 3 2 2 2 2 2 2 3 2 3 3 2 2 2 3
2 1 2 2 2 4 4 4 9 4 6 6 4 4 4 3 2 2 1 0 0 0 1 1 1 1 1 2 3 5 5 5 4 3 3 2 2 2 2 2 3 3 2 3 3 3 3 3 3
2 3 3 5 3 7 2 4 11 7 5 5 5 5 3 2 2 2 1 1 1 1 1 1 1 1 1 2 2 3 5 6 6 5 4 3 2 2 3 3 3 3 3 3 3 3 3 4 4
3 4 5 4 5 6 2 7 9 5 4 5 5 4 3 2 2 2 2 2 2 2 2 2 2 2 1 2 2 2 2 3 3 4 4 4 3 3 3 3 3 3 3 3 3 3 3 3 3
4 3 3 3 0 3 6 7 10 4 4 4 3 3 4 3 2 2 2 2 2 2 2 2 2 2 2 2 2 2 2 2 3 3 3 3 3 2 3 3 3 3 3 3 3 3 4 3 3
2 5 3 4 2 5 7 6 6 5 5 4 3 4 4 3 2 2 2 2 2 2 1 1 2 2 2 1 1 2 2 2 2 3 3 3 3 2 3 3 3 3 3 3 3 3 3 3 3
3 3 3 3 4 4 5 8 7 7 4 4 5 4 4 3 3 2 2 2 1 1 0 0 1 1 1 1 1 1 1 1 2 3 3 3 3 3 3 3 3 3 3 3 3 3 3 4 3
4 5 6 5 5 4 4 11 4 4 3 3 4 4 3 3 2 2 1 1 1 1 1 1 1 1 2 1 1 1 1 1 2 3 3 3 3 3 3 3 3 3 3 3 3 4 3 4 4
Wind_Direction
342 351 46 57 57 54 235 242 217 215 197 111 72 123 145 158 176 209 320 141 134 150 170 170 158 145 141 136 132 130 128 126 123 117 112 108 104 100 96 92 89 85 82 80 77 77 75 71 68
333 3 52 62 101 209 253 235 214 216 185 90 45 72 92 240 269 169 168 182 141 148 158 163 152 141 139 138 135 132 129 127 123 118 113 109 105 102 97 93 89 86 81 80 76 75 75 70 66
342 47 82 85 149 198 226 223 208 195 85 116 74 44 139 213 229 209 223 159 130 131 136 147 145 144 140 140 140 136 132 128 122 118 113 109 105 101 95 92 89 85 81 78 76 71 72 69 66
65 47 58 89 222 228 227 237 178 124 36 75 131 13 280 272 247 213 145 138 128 130 128 140 145 148 145 144 144 142 138 134 128 123 118 112 105 100 97 90 87 87 82 77 76 70 69 68 63
59 79 77 245 243 245 250 253 173 177 186 161 136 178 274 316 18 114 131 136 138 141 133 142 149 152 150 149 144 144 145 142 135 129 123 117 109 99 93 92 88 85 80 73 71 66 64 65 61
63 75 132 228 242 255 264 255 183 190 195 178 155 174 248 326 87 123 127 130 136 142 136 140 154 151 149 151 149 142 145 148 140 134 128 122 113 102 94 91 88 82 76 70 67 65 61 62 59
114 119 188 215 234 254 238 203 179 189 204 216 179 167 262 280 180 115 111 113 108 116 124 131 141 150 150 147 145 142 138 145 138 133 125 116 111 103 91 83 85 84 79 73 65 62 64 61 57
128 119 175 218 216 243 220 169 208 175 212 219 164 179 229 236 139 108 99 99 105 114 131 133 126 128 133 134 133 135 131 131 130 119 105 98 94 92 83 78 81 83 76 69 63 60 61 58 53
96 104 212 217 205 228 182 178 298 26 142 250 219 214 241 130 124 120 117 118 139 154 160 158 153 141 135 132 127 128 123 119 110 101 97 90 85 85 81 68 73 80 77 68 62 62 58 54 49
100 181 224 221 203 210 209 206 216 188 275 262 271 287 106 133 154 166 179 190 192 198 196 183 174 166 150 142 129 125 118 112 109 103 102 94 88 81 82 67 56 51 53 55 53 55 53 44 35
146 207 233 247 232 221 226 237 211 177 244 232 230 228 176 173 187 194 200 205 206 203 199 191 187 176 161 156 148 143 130 125 124 120 117 112 102 95 83 77 49 43 40 42 36 35 39 40 32
177 253 240 258 254 219 226 229 246 221 239 246 226 201 186 197 209 211 212 216 211 204 209 199 187 177 172 163 163 158 150 149 147 145 136 130 127 122 114 101 88 64 49 48 39 31 24 29 24
222 260 264 258 264 247 256 250 252 256 256 270 237 205 212 218 226 228 224 222 215 215 212 199 185 182 175 166 173 170 169 165 163 161 157 152 153 156 143 134 121 105 99 99 64 47 17 18 3
236 261 280 275 254 248 235 271 250 262 260 247 227 227 227 226 228 227 222 222 219 216 212 204 193 188 178 177 179 182 176 169 164 175 174 164 159 161 157 149 147 147 144 151 159 193 328 312 320
282 317 306 265 224 238 274 287 239 249 236 257 255 248 244 239 232 229 227 226 221 217 210 205 200 189 185 186 185 179 175 170 177 182 171 163 163 165 162 158 166 176 161 140 90 46 46 359 347
22 2 296 287 236 270 175 267 264 259 211 252 261 260 257 254 243 241 238 233 227 215 212 213 202 189 190 189 182 175 171 169 175 171 165 165 166 161 159 163 179 168 140 141 149 111 17 333 315
26 278 264 290 249 202 201 257 276 258 230 254 261 263 263 271 268 253 240 231 226 216 212 209 199 191 189 182 170 165 159 162 158 160 163 168 166 162 157 163 162 149 147 169 175 107 173 259 301
240 243 255 263 281 225 246 262 279 267 245 255 262 263 262 262 261 255 239 229 221 211 204 202 194 188 171 159 148 140 141 158 155 165 175 168 168 164 157 156 160 157 154 177 168 168 48 226 262
212 238 265 270 281 258 256 272 281 277 259 262 264 262 260 260 268 258 238 224 199 194 192 196 186 183 165 166 173 172 187 183 175 177 173 171 167 158 156 161 161 164 181 202 189 164 129 39 56
231 265 273 287 315 270 286 281 275 262 243 242 249 256 259 272 289 279 253 227 204 201 203 199 196 184 178 185 180 175 170 179 175 168 168 173 171 169 172 168 178 183 184 190 191 163 148 114 96
235 225 254 280 321 315 322 300 286 286 267 275 257 252 257 251 259 264 248 234 210 208 209 207 198 188 185 177 151 127 115 109 145 173 174 183 180 177 176 179 181 188 188 203 205 180 160 171 230
255 231 235 270 328 300 14 297 291 297 305 292 277 269 263 261 256 254 242 235 217 217 207 205 187 179 181 171 170 171 180 193 195 186 185 178 175 177 179 182 186 189 194 201 206 188 174 164 185
228 323 233 256 225 292 251 245 282 311 293 282 271 264 262 258 245 242 235 230 228 208 188 186 167 172 174 169 182 181 186 190 173 161 170 176 177 183 189 192 192 195 199 198 196 183 184 188 188
149 51 42 52 79 275 233 205 275 246 240 270 276 273 268 262 253 254 265 351 280 209 134 143 152 191 173 168 178 187 184 177 173 181 183 188 185 191 202 199 201 202 203 201 201 196 195 205 204
103 88 17 353 345 256 229 224 251 249 237 246 269 280 283 265 244 246 254 246 247 228 190 161 172 225 193 171 189 197 193 183 190 192 193 190 190 205 216 209 212 212 213 210 202 201 208 210 214
192 157 163 211 247 282 266 239 253 255 265 262 267 275 286 276 256 243 236 232 233 237 218 197 200 228 212 190 204 196 198 195 198 197 194 199 205 213 211 209 218 222 217 215 205 207 217 215 224
160 195 174 144 207 284 270 278 294 274 279 275 272 274 276 271 267 263 261 251 245 241 234 214 203 219 220 207 201 191 198 204 207 195 192 204 207 209 203 209 218 225 223 218 207 215 223 217 226
165 155 126 147 188 268 286 266 252 264 264 281 287 275 279 282 281 278 270 264 261 255 267 237 206 219 228 205 202 203 205 208 211 195 201 211 212 206 205 214 217 224 225 216 211 225 228 224 230
153 167 162 161 179 189 273 270 228 224 232 246 265 275 276 276 277 272 274 275 281 294 279 273 240 230 235 224 212 203 212 205 205 211 213 213 212 203 207 215 216 221 226 221 222 233 229 228 238
191 191 168 177 228 209 239 269 273 236 258 266 282 293 299 293 290 280 275 296 317 311 311 283 272 252 243 223 208 212 211 201 213 228 227 213 210 209 210 212 215 221 225 222 224 233 232 230 237